Regional Weather Roundup
Issued by NWS

Home | Current Version | Previous Version | Graphics & Text | Print | Product List | Glossary On
Versions: 1 2 3 4 5 6 7 8 9 10 11 12 13 14 15 16 17 18 19 20 21 22 23 24 25 26 27 28 29 30 31 32 33 34 35 36 37 38 39 40 41 42 43 44 45 46 47 48 49 50
000
ASUS45 KCYS 011510
RWRWY

WYOMING REGIONAL WEATHER ROUNDUP
NATIONAL WEATHER SERVICE CHEYENNE WY
900 AM MDT WED APR 01 2015

NOTE:  "FAIR" INDICATES FEW OR NO CLOUDS BELOW 12,000 FEET
WITH NO SIGNIFICANT WEATHER AND/OR OBSTRUCTIONS TO VISIBILITY.

WYZ001-011600-
YELLOWSTONE NATIONAL PARK

CITY           SKY/WX    TMP DP  RH WIND       PRES   REMARKS
LK YELLOWSTONE NOT AVBL
W YELLOWSTONE  NOT AVBL

$$
WYZ002>013-054>058-071-098>099-011600-
NORTHERN WYOMING

CITY           SKY/WX    TMP DP  RH WIND       PRES   REMARKS
JACKSON        CLOUDY    32  23  69 S12G21    29.97R WCI  23
CODY           PTSUNNY   36  27  69 N12       29.86R WCI  27
GREYBULL       FAIR      42  25  50 NW25G41   29.80R
WORLAND        FAIR      44  20  38 NW24G33   29.82R
SHERIDAN       CLOUDY    42  24  49 NW23      29.85S
BUFFALO        FAIR      37  30  75 N33G45    29.81R WCI  24
GILLETTE       CLOUDY    46  32  58 NW17      29.78R
HULETT         CLOUDY    45  32  61 NW9G21    29.77R
NEWCASTLE      FAIR      48  32  53 NW21G26   29.71R

$$
WYZ014>020-022>026-101>103-011600-
CENTRAL WYOMING

CITY           SKY/WX    TMP DP  RH WIND       PRES   REMARKS
BIG PINEY      FAIR      35   6  29 NW16      29.98R WCI  25
PINEDALE       FAIR      32   9  37 W17G23    29.98R WCI  21
DUBOIS         FAIR      32   9  37 W23G35    29.86R WCI  19
LANDER         NOT AVBL
RIVERTON       FAIR      49  14  24 NW18      29.80R
CASPER         PTSUNNY   45  32  60 N10       29.80R
DOUGLAS        FAIR      54  33  45 NW12      29.76S

$$
WYZ021-027>030-104>119-011600-
SOUTHERN WYOMING

CITY           SKY/WX    TMP DP  RH WIND       PRES   REMARKS
EVANSTON       FAIR      32  13  45 W15       30.06R WCI  22
FORT BRIDGER   FAIR      35  17  47 W15       30.07R WCI  26
ROCK SPRINGS   FAIR      37  16  42 W21G26    29.99R WCI  26
DIXON          PTSUNNY   47  24  39 W17G28    29.97R
RAWLINS        FAIR      44  26  49 W29G36    29.88R
SARATOGA       FAIR      46  28  49 W21G30    29.90R
LARAMIE        FAIR      48  25  40 W7        29.85S
CHEYENNE       FAIR      55  25  31 NW6       29.82R
TORRINGTON     FAIR      56  25  30 W8        29.71S
PINE BLUFFS    FAIR      57  27  30 NW18      29.77S

$$


USA.gov is the U.S. government's official web portal to all federal, state and local government web resources and services.